Time,TemperatureF,DewpointF,PressureIn,WindDirection,WindDirectionDegrees,WindSpeedMPH,WindSpeedGustMPH,Humidity,HourlyPrecipIn,Conditions,Clouds,dailyrainin,SoftwareType,DateUTC
2013-10-20 00:01:00,56.3,51.5,29.74,NE,49,0.0,0.0,84,0.00,,,0.00,Wunderground v.1.15,2013-10-20 04:01:00,
2013-10-20 00:04:00,56.3,51.5,29.74,NE,48,0.0,0.0,84,0.00,,,0.00,Wunderground v.1.15,2013-10-20 04:04:00,
2013-10-20 00:05:00,56.3,51.5,29.74,NE,48,0.0,0.0,84,0.00,,,0.00,Wunderground v.1.15,2013-10-20 04:05:00,
2013-10-20 00:08:00,56.2,51.4,29.74,NE,49,0.0,0.0,84,0.00,,,0.00,Wunderground v.1.15,2013-10-20 04:08:00,
2013-10-20 00:13:00,56.1,51.3,29.74,NE,48,0.0,0.0,84,0.00,,,0.00,Wunderground v.1.15,2013-10-20 04:13:00,
2013-10-20 00:19:00,55.9,51.5,29.73,NE,49,0.0,0.0,85,0.00,,,0.00,Wunderground v.1.15,2013-10-20 04:19:00,
2013-10-20 00:24:00,55.8,51.4,29.74,NE,49,0.0,0.0,85,0.00,,,0.00,Wunderground v.1.15,2013-10-20 04:24:00,
2013-10-20 00:29:00,55.7,51.6,29.74,NE,49,0.0,0.0,86,0.00,,,0.00,Wunderground v.1.15,2013-10-20 04:29:00,
2013-10-20 00:34:00,55.8,52.0,29.73,NE,49,0.0,0.0,87,0.00,,,0.00,Wunderground v.1.15,2013-10-20 04:34:00,
2013-10-20 00:40:00,55.9,52.1,29.73,NE,48,0.0,0.0,87,0.00,,,0.00,Wunderground v.1.15,2013-10-20 04:40:00,
2013-10-20 00:45:00,56.1,52.6,29.73,NW,309,0.0,1.0,88,0.00,,,0.00,Wunderground v.1.15,2013-10-20 04:45:00,
2013-10-20 00:51:00,56.2,52.7,29.73,NW,315,0.0,0.0,88,0.00,,,0.00,Wunderground v.1.15,2013-10-20 04:51:00,
2013-10-20 00:57:00,56.4,53.2,29.72,SE,143,0.0,0.0,89,0.00,,,0.00,Wunderground v.1.15,2013-10-20 04:57:00,
2013-10-20 01:02:00,56.6,53.4,29.72,WSW,239,0.0,1.0,89,0.00,,,0.00,Wunderground v.1.15,2013-10-20 05:02:00,
2013-10-20 01:08:00,56.8,53.6,29.72,WSW,245,0.0,1.0,89,0.00,,,0.00,Wunderground v.1.15,2013-10-20 05:08:00,
2013-10-20 01:13:00,56.9,53.4,29.72,WSW,253,0.0,1.0,88,0.00,,,0.00,Wunderground v.1.15,2013-10-20 05:13:00,
2013-10-20 01:18:00,57.0,53.5,29.72,West,276,0.0,1.0,88,0.00,,,0.00,Wunderground v.1.15,2013-10-20 05:18:00,
2013-10-20 01:24:00,57.0,53.5,29.72,WSW,248,0.0,1.0,88,0.00,,,0.00,Wunderground v.1.15,2013-10-20 05:24:00,
2013-10-20 01:29:00,57.1,53.6,29.72,WSW,240,0.0,2.0,88,0.00,,,0.00,Wunderground v.1.15,2013-10-20 05:29:00,
2013-10-20 01:34:00,57.2,53.4,29.72,SW,236,0.0,0.0,87,0.00,,,0.00,Wunderground v.1.15,2013-10-20 05:34:00,
2013-10-20 01:40:00,57.2,53.4,29.72,WSW,239,0.0,0.0,87,0.00,,,0.00,Wunderground v.1.15,2013-10-20 05:40:00,
2013-10-20 01:46:00,57.1,53.3,29.71,West,274,0.0,2.0,87,0.00,,,0.00,Wunderground v.1.15,2013-10-20 05:46:00,
2013-10-20 01:51:00,57.0,53.5,29.71,WSW,247,0.0,0.0,88,0.00,,,0.00,Wunderground v.1.15,2013-10-20 05:51:00,
2013-10-20 01:57:00,56.9,53.4,29.71,WSW,253,0.0,1.0,88,0.00,,,0.00,Wunderground v.1.15,2013-10-20 05:57:00,
2013-10-20 02:02:00,57.0,53.5,29.71,SW,218,0.0,0.0,88,0.00,,,0.00,Wunderground v.1.15,2013-10-20 06:02:00,
2013-10-20 02:07:00,57.0,53.5,29.71,WSW,256,0.0,0.0,88,0.00,,,0.00,Wunderground v.1.15,2013-10-20 06:07:00,
2013-10-20 02:12:00,57.0,53.5,29.71,NW,309,0.0,0.0,88,0.00,,,0.00,Wunderground v.1.15,2013-10-20 06:12:00,
2013-10-20 02:18:00,57.0,53.5,29.71,NW,309,0.0,0.0,88,0.00,,,0.00,Wunderground v.1.15,2013-10-20 06:18:00,
2013-10-20 02:23:00,57.0,53.5,29.71,NW,309,0.0,0.0,88,0.00,,,0.00,Wunderground v.1.15,2013-10-20 06:23:00,
2013-10-20 02:28:00,57.0,54.0,29.70,NNE,27,0.0,1.0,88,0.00,,,0.00,weatherlink.com 1.10,2013-10-20 06:28:00,
2013-10-20 02:34:00,56.9,53.4,29.70,WSW,245,0.0,0.0,88,0.00,,,0.00,Wunderground v.1.15,2013-10-20 06:34:00,
2013-10-20 02:39:00,56.8,53.3,29.70,WSW,246,0.0,0.0,88,0.00,,,0.00,Wunderground v.1.15,2013-10-20 06:39:00,
2013-10-20 02:44:00,56.7,53.2,29.70,WSW,248,0.0,0.0,88,0.00,,,0.00,Wunderground v.1.15,2013-10-20 06:44:00,
2013-10-20 02:49:00,56.6,53.4,29.70,WSW,248,0.0,0.0,89,0.00,,,0.00,Wunderground v.1.15,2013-10-20 06:49:00,
2013-10-20 02:55:00,56.5,53.3,29.70,WSW,256,0.0,0.0,89,0.00,,,0.00,Wunderground v.1.15,2013-10-20 06:55:00,
2013-10-20 03:01:00,56.6,53.7,29.70,WSW,246,0.0,0.0,90,0.00,,,0.00,Wunderground v.1.15,2013-10-20 07:01:00,
2013-10-20 03:06:00,56.7,53.8,29.70,West,259,0.0,2.0,90,0.00,,,0.00,Wunderground v.1.15,2013-10-20 07:06:00,
2013-10-20 03:12:00,56.7,53.5,29.70,West,262,0.0,1.0,89,0.00,,,0.00,Wunderground v.1.15,2013-10-20 07:12:00,
2013-10-20 03:17:00,56.7,53.8,29.70,SW,231,0.0,2.0,90,0.00,,,0.00,Wunderground v.1.15,2013-10-20 07:17:00,
2013-10-20 03:23:00,56.7,53.8,29.70,West,270,0.0,0.0,90,0.00,,,0.00,Wunderground v.1.15,2013-10-20 07:23:00,
2013-10-20 03:28:00,56.5,53.3,29.69,West,270,0.0,0.0,89,0.00,,,0.00,Wunderground v.1.15,2013-10-20 07:28:00,
2013-10-20 03:34:00,56.3,53.4,29.70,WSW,245,0.0,1.0,90,0.00,,,0.00,Wunderground v.1.15,2013-10-20 07:34:00,
2013-10-20 03:40:00,56.1,53.5,29.70,WSW,246,0.0,0.0,91,0.00,,,0.00,Wunderground v.1.15,2013-10-20 07:40:00,
2013-10-20 03:45:00,56.0,53.4,29.70,WSW,248,0.0,0.0,91,0.00,,,0.00,Wunderground v.1.15,2013-10-20 07:45:00,
2013-10-20 03:50:00,55.8,53.2,29.71,West,269,0.0,1.0,91,0.00,,,0.00,Wunderground v.1.15,2013-10-20 07:50:00,
2013-10-20 03:55:00,55.7,53.1,29.71,West,271,0.0,1.0,91,0.00,,,0.00,Wunderground v.1.15,2013-10-20 07:55:00,
2013-10-20 04:00:00,55.5,53.2,29.70,West,260,0.0,0.0,92,0.00,,,0.00,Wunderground v.1.15,2013-10-20 08:00:00,
2013-10-20 04:06:00,55.2,52.9,29.71,West,260,0.0,0.0,92,0.00,,,0.00,Wunderground v.1.15,2013-10-20 08:06:00,
2013-10-20 04:12:00,55.0,52.7,29.71,West,260,0.0,0.0,92,0.00,,,0.00,Wunderground v.1.15,2013-10-20 08:12:00,
2013-10-20 04:18:00,54.8,52.5,29.71,SSW,208,0.0,0.0,92,0.00,,,0.00,Wunderground v.1.15,2013-10-20 08:18:00,
2013-10-20 04:24:00,54.8,52.8,29.71,SW,220,0.0,0.0,93,0.00,,,0.00,Wunderground v.1.15,2013-10-20 08:24:00,
2013-10-20 04:29:00,54.8,52.8,29.70,SW,231,0.0,0.0,93,0.00,,,0.00,Wunderground v.1.15,2013-10-20 08:29:00,
2013-10-20 04:34:00,54.7,52.7,29.71,SW,236,0.0,0.0,93,0.00,,,0.00,Wunderground v.1.15,2013-10-20 08:34:00,
2013-10-20 04:40:00,54.6,52.6,29.71,SSW,211,0.0,0.0,93,0.00,,,0.00,Wunderground v.1.15,2013-10-20 08:40:00,
2013-10-20 04:46:00,54.5,52.5,29.71,WSW,256,0.0,0.0,93,0.00,,,0.00,Wunderground v.1.15,2013-10-20 08:46:00,
2013-10-20 04:52:00,54.6,52.6,29.71,West,270,0.0,1.0,93,0.00,,,0.00,Wunderground v.1.15,2013-10-20 08:52:00,
2013-10-20 04:57:00,54.7,52.4,29.71,West,260,0.0,1.0,92,0.00,,,0.00,Wunderground v.1.15,2013-10-20 08:57:00,
2013-10-20 05:03:00,55.0,52.1,29.72,West,262,1.0,1.0,90,0.00,,,0.00,Wunderground v.1.15,2013-10-20 09:03:00,
2013-10-20 05:09:00,55.0,52.1,29.72,WNW,301,1.0,2.0,90,0.00,,,0.00,Wunderground v.1.15,2013-10-20 09:09:00,
2013-10-20 05:14:00,55.1,51.9,29.72,WSW,243,1.0,2.0,89,0.00,,,0.00,Wunderground v.1.15,2013-10-20 09:14:00,
2013-10-20 05:20:00,55.2,51.7,29.72,SW,221,1.0,1.0,88,0.00,,,0.00,Wunderground v.1.15,2013-10-20 09:20:00,
2013-10-20 05:25:00,55.2,51.7,29.72,WSW,257,1.0,2.0,88,0.00,,,0.00,Wunderground v.1.15,2013-10-20 09:25:00,
2013-10-20 05:30:00,55.1,51.6,29.72,West,276,1.0,1.0,88,0.00,,,0.00,Wunderground v.1.15,2013-10-20 09:30:00,
2013-10-20 05:35:00,55.1,51.3,29.72,West,278,1.0,1.0,87,0.00,,,0.00,Wunderground v.1.15,2013-10-20 09:35:00,
2013-10-20 05:40:00,55.0,51.2,29.73,West,277,1.0,1.0,87,0.00,,,0.00,Wunderground v.1.15,2013-10-20 09:40:00,
2013-10-20 05:46:00,54.9,51.1,29.73,WNW,288,1.0,1.0,87,0.00,,,0.00,Wunderground v.1.15,2013-10-20 09:46:00,
2013-10-20 05:52:00,54.7,50.9,29.73,SW,231,0.0,1.0,87,0.00,,,0.00,Wunderground v.1.15,2013-10-20 09:52:00,
2013-10-20 05:57:00,54.6,51.1,29.73,WSW,243,0.0,2.0,88,0.00,,,0.00,Wunderground v.1.15,2013-10-20 09:57:00,
2013-10-20 06:02:00,54.5,51.0,29.73,WNW,298,1.0,2.0,88,0.00,,,0.00,Wunderground v.1.15,2013-10-20 10:02:00,
2013-10-20 06:08:00,54.4,50.6,29.74,NW,304,1.0,2.0,87,0.00,,,0.00,Wunderground v.1.15,2013-10-20 10:08:00,
2013-10-20 06:13:00,54.3,50.5,29.74,WSW,242,1.0,3.0,87,0.00,,,0.00,Wunderground v.1.15,2013-10-20 10:13:00,
2013-10-20 06:19:00,54.2,50.4,29.74,SW,221,1.0,3.0,87,0.00,,,0.00,Wunderground v.1.15,2013-10-20 10:19:00,
2013-10-20 06:25:00,54.0,50.2,29.74,West,268,1.0,3.0,87,0.00,,,0.00,Wunderground v.1.15,2013-10-20 10:25:00,
2013-10-20 06:30:00,54.0,50.0,29.74,WSW,253,2.0,7.0,87,0.00,,,0.00,weatherlink.com 1.10,2013-10-20 10:30:00,
2013-10-20 06:36:00,53.8,50.0,29.74,West,271,2.0,3.0,87,0.00,,,0.00,Wunderground v.1.15,2013-10-20 10:36:00,
2013-10-20 06:41:00,53.7,49.9,29.74,SW,218,2.0,2.0,87,0.00,,,0.00,Wunderground v.1.15,2013-10-20 10:41:00,
2013-10-20 06:47:00,53.5,49.4,29.75,NW,315,1.0,3.0,86,0.00,,,0.00,Wunderground v.1.15,2013-10-20 10:47:00,
2013-10-20 06:52:00,53.3,48.9,29.75,NNW,328,1.0,3.0,85,0.00,,,0.00,Wunderground v.1.15,2013-10-20 10:52:00,
2013-10-20 06:58:00,53.2,48.2,29.75,SW,218,1.0,3.0,83,0.00,,,0.00,Wunderground v.1.15,2013-10-20 10:58:00,
2013-10-20 07:04:00,53.1,47.1,29.76,West,271,2.0,8.0,80,0.00,,,0.00,Wunderground v.1.15,2013-10-20 11:04:00,
2013-10-20 07:09:00,53.3,47.0,29.76,WNW,287,3.0,8.0,79,0.00,,,0.00,Wunderground v.1.15,2013-10-20 11:09:00,
2013-10-20 07:14:00,53.2,46.9,29.76,West,259,2.0,3.0,79,0.00,,,0.00,Wunderground v.1.15,2013-10-20 11:14:00,
2013-10-20 07:19:00,53.1,46.4,29.77,WSW,245,1.0,4.0,78,0.00,,,0.00,Wunderground v.1.15,2013-10-20 11:19:00,
2013-10-20 07:24:00,53.1,46.1,29.77,WNW,287,2.0,4.0,77,0.00,,,0.00,Wunderground v.1.15,2013-10-20 11:24:00,
2013-10-20 07:30:00,53.0,46.0,29.77,West,267,2.0,4.0,77,0.00,,,0.00,Wunderground v.1.15,2013-10-20 11:30:00,
2013-10-20 07:35:00,53.0,46.0,29.78,SW,225,1.0,4.0,77,0.00,,,0.00,Wunderground v.1.15,2013-10-20 11:35:00,
2013-10-20 07:41:00,53.0,46.0,29.78,WNW,293,3.0,4.0,77,0.00,,,0.00,Wunderground v.1.15,2013-10-20 11:41:00,
2013-10-20 07:46:00,53.0,46.0,29.78,WSW,252,3.0,4.0,77,0.00,,,0.00,Wunderground v.1.15,2013-10-20 11:46:00,
2013-10-20 07:51:00,53.0,45.6,29.78,West,276,2.0,2.0,76,0.00,,,0.00,Wunderground v.1.15,2013-10-20 11:51:00,
2013-10-20 07:57:00,52.9,45.5,29.79,WNW,300,2.0,2.0,76,0.00,,,0.00,Wunderground v.1.15,2013-10-20 11:57:00,
2013-10-20 08:02:00,52.9,46.0,29.79,WSW,242,5.0,7.0,76,0.00,,,0.00,weatherlink.com 1.10,2013-10-20 12:02:00,
2013-10-20 08:08:00,52.9,45.2,29.80,SW,221,2.0,6.0,75,0.00,,,0.00,Wunderground v.1.15,2013-10-20 12:08:00,
2013-10-20 08:13:00,53.0,44.9,29.80,West,260,3.0,9.0,74,0.00,,,0.00,Wunderground v.1.15,2013-10-20 12:13:00,
2013-10-20 08:19:00,53.0,44.9,29.80,WSW,239,3.0,9.0,74,0.00,,,0.00,Wunderground v.1.15,2013-10-20 12:19:00,
2013-10-20 08:24:00,53.1,44.7,29.81,West,280,3.0,5.0,73,0.00,,,0.00,Wunderground v.1.15,2013-10-20 12:24:00,
2013-10-20 08:29:00,53.1,44.3,29.81,SSW,194,3.0,5.0,72,0.00,,,0.00,Wunderground v.1.15,2013-10-20 12:29:00,
2013-10-20 08:34:00,53.2,44.0,29.81,SSW,197,2.0,4.0,71,0.00,,,0.00,Wunderground v.1.15,2013-10-20 12:34:00,
2013-10-20 08:40:00,53.2,43.3,29.82,WNW,288,2.0,4.0,69,0.00,,,0.00,Wunderground v.1.15,2013-10-20 12:40:00,
2013-10-20 08:46:00,53.2,42.9,29.82,SW,215,2.0,4.0,68,0.00,,,0.00,Wunderground v.1.15,2013-10-20 12:46:00,
2013-10-20 08:51:00,53.2,42.5,29.82,West,278,2.0,4.0,67,0.00,,,0.00,Wunderground v.1.15,2013-10-20 12:51:00,
2013-10-20 08:57:00,53.3,43.0,29.82,NNW,329,2.0,4.0,68,0.00,,,0.00,Wunderground v.1.15,2013-10-20 12:57:00,
2013-10-20 09:02:00,53.5,42.4,29.83,WSW,249,2.0,3.0,66,0.00,,,0.00,Wunderground v.1.15,2013-10-20 13:02:00,
2013-10-20 09:07:00,53.5,41.6,29.83,WNW,287,2.0,4.0,64,0.00,,,0.00,Wunderground v.1.15,2013-10-20 13:07:00,
2013-10-20 09:13:00,53.4,40.7,29.83,SW,224,3.0,8.0,62,0.00,,,0.00,Wunderground v.1.15,2013-10-20 13:13:00,
2013-10-20 09:18:00,53.5,40.8,29.83,SW,226,3.0,8.0,62,0.00,,,0.00,Wunderground v.1.15,2013-10-20 13:18:00,
2013-10-20 09:23:00,53.8,40.7,29.83,NNW,330,2.0,3.0,61,0.00,,,0.00,Wunderground v.1.15,2013-10-20 13:23:00,
2013-10-20 09:28:00,53.8,40.2,29.83,NW,310,2.0,6.0,60,0.00,,,0.00,Wunderground v.1.15,2013-10-20 13:28:00,
2013-10-20 09:34:00,53.8,40.0,29.84,WSW,251,2.0,10.0,59,0.00,,,0.00,weatherlink.com 1.10,2013-10-20 13:34:00,
2013-10-20 09:39:00,54.1,40.5,29.84,NW,320,3.0,8.0,60,0.00,,,0.00,Wunderground v.1.15,2013-10-20 13:39:00,
2013-10-20 09:44:00,54.2,39.3,29.84,SW,217,3.0,7.0,57,0.00,,,0.00,Wunderground v.1.15,2013-10-20 13:44:00,
2013-10-20 09:49:00,54.3,39.8,29.84,WNW,288,3.0,7.0,58,0.00,,,0.00,Wunderground v.1.15,2013-10-20 13:49:00,
2013-10-20 09:55:00,54.3,39.4,29.84,WNW,298,4.0,8.0,57,0.00,,,0.00,Wunderground v.1.15,2013-10-20 13:55:00,
2013-10-20 10:01:00,54.6,39.2,29.84,NW,315,4.0,4.0,56,0.00,,,0.00,Wunderground v.1.15,2013-10-20 14:01:00,
2013-10-20 10:06:00,55.1,39.7,29.84,West,280,2.0,6.0,56,0.00,,,0.00,Wunderground v.1.15,2013-10-20 14:06:00,
2013-10-20 10:12:00,55.2,37.9,29.85,WSW,239,3.0,9.0,52,0.00,,,0.00,Wunderground v.1.15,2013-10-20 14:12:00,
2013-10-20 10:18:00,55.4,38.1,29.84,SW,233,3.0,9.0,52,0.00,,,0.00,Wunderground v.1.15,2013-10-20 14:18:00,
2013-10-20 10:23:00,55.6,38.2,29.84,NW,323,2.0,4.0,52,0.00,,,0.00,Wunderground v.1.15,2013-10-20 14:23:00,
2013-10-20 10:29:00,55.8,37.4,29.84,NW,321,3.0,5.0,50,0.00,,,0.00,Wunderground v.1.15,2013-10-20 14:29:00,
2013-10-20 10:35:00,55.9,37.0,29.85,WSW,246,5.0,11.0,50,0.00,,,0.00,weatherlink.com 1.10,2013-10-20 14:35:00,
2013-10-20 10:40:00,55.9,36.5,29.85,NW,305,4.0,4.0,48,0.00,,,0.00,Wunderground v.1.15,2013-10-20 14:40:00,
2013-10-20 10:46:00,55.9,36.5,29.85,SW,229,3.0,4.0,48,0.00,,,0.00,Wunderground v.1.15,2013-10-20 14:46:00,
2013-10-20 10:52:00,56.3,36.8,29.85,SSW,204,3.0,7.0,48,0.00,,,0.00,Wunderground v.1.15,2013-10-20 14:52:00,
2013-10-20 10:58:00,56.5,37.0,29.85,SSE,163,4.0,7.0,48,0.00,,,0.00,Wunderground v.1.15,2013-10-20 14:58:00,
2013-10-20 11:04:00,56.5,36.5,29.85,NNW,330,4.0,5.0,47,0.00,,,0.00,Wunderground v.1.15,2013-10-20 15:04:00,
2013-10-20 11:10:00,56.8,36.2,29.85,SSW,212,4.0,7.0,46,0.00,,,0.00,Wunderground v.1.15,2013-10-20 15:10:00,
2013-10-20 11:15:00,57.0,37.0,29.85,WNW,295,4.0,5.0,47,0.00,,,0.00,Wunderground v.1.15,2013-10-20 15:15:00,
2013-10-20 11:21:00,57.6,37.0,29.85,West,263,3.0,3.0,46,0.00,,,0.00,Wunderground v.1.15,2013-10-20 15:21:00,
2013-10-20 11:26:00,57.9,36.7,29.86,WSW,242,3.0,8.0,45,0.00,,,0.00,Wunderground v.1.15,2013-10-20 15:26:00,
2013-10-20 11:31:00,58.0,36.8,29.85,WNW,285,2.0,3.0,45,0.00,,,0.00,Wunderground v.1.15,2013-10-20 15:31:00,
2013-10-20 11:37:00,58.1,36.3,29.85,WSW,243,3.0,4.0,44,0.00,,,0.00,Wunderground v.1.15,2013-10-20 15:37:00,
2013-10-20 11:43:00,58.1,35.7,29.85,SSW,210,3.0,3.0,43,0.00,,,0.00,Wunderground v.1.15,2013-10-20 15:43:00,
2013-10-20 11:48:00,58.0,35.6,29.86,West,271,4.0,9.0,43,0.00,,,0.00,Wunderground v.1.15,2013-10-20 15:48:00,
2013-10-20 11:54:00,58.2,36.4,29.86,West,269,4.0,6.0,44,0.00,,,0.00,Wunderground v.1.15,2013-10-20 15:54:00,
2013-10-20 11:59:00,58.4,36.0,29.85,NW,309,3.0,6.0,43,0.00,,,0.00,Wunderground v.1.15,2013-10-20 15:59:00,
2013-10-20 12:05:00,58.4,34.8,29.86,WNW,288,3.0,8.0,41,0.00,,,0.00,Wunderground v.1.15,2013-10-20 16:05:00,
2013-10-20 12:10:00,58.3,34.7,29.86,WSW,253,4.0,8.0,41,0.00,,,0.00,Wunderground v.1.15,2013-10-20 16:10:00,
2013-10-20 12:15:00,58.5,34.9,29.86,West,269,4.0,8.0,41,0.00,,,0.00,Wunderground v.1.15,2013-10-20 16:15:00,
2013-10-20 12:21:00,58.7,35.7,29.86,NW,323,4.0,4.0,42,0.00,,,0.00,Wunderground v.1.15,2013-10-20 16:21:00,
2013-10-20 12:26:00,59.5,36.4,29.86,ENE,61,2.0,4.0,42,0.00,,,0.00,Wunderground v.1.15,2013-10-20 16:26:00,
2013-10-20 12:31:00,59.7,35.3,29.86,SW,221,1.0,3.0,40,0.00,,,0.00,Wunderground v.1.15,2013-10-20 16:31:00,
2013-10-20 12:36:00,59.2,35.0,29.86,WNW,289,4.0,8.0,40,0.00,,,0.00,weatherlink.com 1.10,2013-10-20 16:36:00,
2013-10-20 12:39:00,59.1,35.4,29.85,WSW,246,4.0,5.0,41,0.00,,,0.00,Wunderground v.1.15,2013-10-20 16:39:00,
2013-10-20 12:44:00,59.5,35.8,29.85,NW,312,3.0,3.0,41,0.00,,,0.00,Wunderground v.1.15,2013-10-20 16:44:00,
2013-10-20 12:50:00,59.9,35.5,29.85,SE,137,2.0,4.0,40,0.00,,,0.00,Wunderground v.1.15,2013-10-20 16:50:00,
2013-10-20 12:55:00,59.9,35.5,29.85,SW,226,3.0,5.0,40,0.00,,,0.00,Wunderground v.1.15,2013-10-20 16:55:00,
2013-10-20 13:01:00,60.0,35.6,29.86,WNW,283,3.0,5.0,40,0.00,,,0.00,Wunderground v.1.15,2013-10-20 17:01:00,
2013-10-20 13:06:00,59.9,35.5,29.85,WSW,252,3.0,6.0,40,0.00,,,0.00,Wunderground v.1.15,2013-10-20 17:06:00,
2013-10-20 13:11:00,59.8,35.4,29.85,South,184,4.0,4.0,40,0.00,,,0.00,Wunderground v.1.15,2013-10-20 17:11:00,
2013-10-20 13:16:00,60.1,35.0,29.85,WSW,252,3.0,4.0,39,0.00,,,0.00,Wunderground v.1.15,2013-10-20 17:16:00,
2013-10-20 13:21:00,60.1,35.0,29.85,SW,219,3.0,4.0,39,0.00,,,0.00,Wunderground v.1.15,2013-10-20 17:21:00,
2013-10-20 13:27:00,60.1,34.4,29.85,WNW,297,4.0,7.0,38,0.00,,,0.00,Wunderground v.1.15,2013-10-20 17:27:00,
2013-10-20 13:33:00,60.1,34.4,29.85,WSW,239,4.0,5.0,38,0.00,,,0.00,Wunderground v.1.15,2013-10-20 17:33:00,
2013-10-20 13:38:00,60.5,34.1,29.84,West,262,3.0,5.0,37,0.00,,,0.00,Wunderground v.1.15,2013-10-20 17:38:00,
2013-10-20 13:44:00,61.0,33.1,29.84,WNW,290,3.0,4.0,35,0.00,,,0.00,Wunderground v.1.15,2013-10-20 17:44:00,
2013-10-20 13:49:00,61.0,33.1,29.84,NNW,328,3.0,5.0,35,0.00,,,0.00,Wunderground v.1.15,2013-10-20 17:49:00,
2013-10-20 13:55:00,60.9,33.0,29.84,SW,214,4.0,6.0,35,0.00,,,0.00,Wunderground v.1.15,2013-10-20 17:55:00,
2013-10-20 14:00:00,61.2,33.3,29.84,SW,236,4.0,4.0,35,0.00,,,0.00,Wunderground v.1.15,2013-10-20 18:00:00,
2013-10-20 14:06:00,61.3,33.4,29.84,SSW,194,3.0,8.0,35,0.00,,,0.00,Wunderground v.1.15,2013-10-20 18:06:00,
2013-10-20 14:12:00,61.3,33.4,29.84,WSW,238,3.0,6.0,35,0.00,,,0.00,Wunderground v.1.15,2013-10-20 18:12:00,
2013-10-20 14:18:00,61.4,32.0,29.84,WSW,250,5.0,6.0,33,0.00,,,0.00,Wunderground v.1.15,2013-10-20 18:18:00,
2013-10-20 14:24:00,61.4,32.8,29.84,South,181,5.0,6.0,34,0.00,,,0.00,Wunderground v.1.15,2013-10-20 18:24:00,
2013-10-20 14:30:00,61.8,33.8,29.85,NW,314,3.0,3.0,35,0.00,,,0.00,Wunderground v.1.15,2013-10-20 18:30:00,
2013-10-20 14:36:00,62.5,33.7,29.85,NW,321,2.0,4.0,34,0.00,,,0.00,Wunderground v.1.15,2013-10-20 18:36:00,
2013-10-20 14:42:00,62.4,33.6,29.85,West,276,3.0,6.0,34,0.00,,,0.00,Wunderground v.1.15,2013-10-20 18:42:00,
2013-10-20 14:48:00,62.4,33.6,29.85,NW,318,3.0,6.0,34,0.00,,,0.00,Wunderground v.1.15,2013-10-20 18:48:00,
2013-10-20 14:53:00,62.6,33.8,29.85,WNW,290,2.0,3.0,34,0.00,,,0.00,Wunderground v.1.15,2013-10-20 18:53:00,
2013-10-20 14:59:00,62.5,33.7,29.85,WNW,285,2.0,6.0,34,0.00,,,0.00,Wunderground v.1.15,2013-10-20 18:59:00,
2013-10-20 15:05:00,62.7,33.9,29.85,West,271,2.0,2.0,34,0.00,,,0.00,Wunderground v.1.15,2013-10-20 19:05:00,
2013-10-20 15:10:00,62.7,33.9,29.85,WNW,302,2.0,3.0,34,0.00,,,0.00,Wunderground v.1.15,2013-10-20 19:10:00,
2013-10-20 15:16:00,62.5,33.7,29.85,WSW,238,3.0,6.0,34,0.00,,,0.00,Wunderground v.1.15,2013-10-20 19:16:00,
2013-10-20 15:21:00,62.6,34.5,29.86,NW,320,3.0,3.0,35,0.00,,,0.00,Wunderground v.1.15,2013-10-20 19:21:00,
2013-10-20 15:27:00,62.7,34.6,29.86,SW,229,1.0,3.0,35,0.00,,,0.00,Wunderground v.1.15,2013-10-20 19:27:00,
2013-10-20 15:33:00,62.9,34.1,29.86,SW,236,2.0,5.0,34,0.00,,,0.00,Wunderground v.1.15,2013-10-20 19:33:00,
2013-10-20 15:38:00,62.6,33.8,29.86,SW,231,3.0,5.0,34,0.00,,,0.00,Wunderground v.1.15,2013-10-20 19:38:00,
2013-10-20 15:43:00,62.5,33.7,29.86,SW,236,3.0,4.0,34,0.00,,,0.00,Wunderground v.1.15,2013-10-20 19:43:00,
2013-10-20 15:48:00,62.5,33.7,29.87,WNW,286,2.0,5.0,34,0.00,,,0.00,Wunderground v.1.15,2013-10-20 19:48:00,
2013-10-20 15:54:00,62.1,33.4,29.87,WSW,253,3.0,5.0,34,0.00,,,0.00,Wunderground v.1.15,2013-10-20 19:54:00,
2013-10-20 16:01:00,61.8,33.1,29.87,West,267,3.0,3.0,34,0.00,,,0.00,Wunderground v.1.15,2013-10-20 20:01:00,
2013-10-20 16:06:00,61.8,33.8,29.87,WSW,253,2.0,4.0,35,0.00,,,0.00,Wunderground v.1.15,2013-10-20 20:06:00,
2013-10-20 16:11:00,61.8,33.1,29.88,WSW,239,3.0,4.0,34,0.00,,,0.00,Wunderground v.1.15,2013-10-20 20:11:00,
2013-10-20 16:17:00,61.9,33.2,29.88,WNW,300,3.0,4.0,34,0.00,,,0.00,Wunderground v.1.15,2013-10-20 20:17:00,
2013-10-20 16:23:00,61.9,32.5,29.88,NNW,335,2.0,3.0,33,0.00,,,0.00,Wunderground v.1.15,2013-10-20 20:23:00,
2013-10-20 16:29:00,61.8,32.4,29.88,NW,323,2.0,3.0,33,0.00,,,0.00,Wunderground v.1.15,2013-10-20 20:29:00,
2013-10-20 16:34:00,61.8,33.1,29.88,West,269,2.0,6.0,34,0.00,,,0.00,Wunderground v.1.15,2013-10-20 20:34:00,
2013-10-20 16:39:00,61.7,33.0,29.88,WSW,255,2.0,6.0,34,0.00,,,0.00,Wunderground v.1.15,2013-10-20 20:39:00,
2013-10-20 16:45:00,61.8,33.1,29.88,SSW,196,2.0,6.0,34,0.00,,,0.00,Wunderground v.1.15,2013-10-20 20:45:00,
2013-10-20 16:50:00,61.8,33.1,29.88,WNW,300,3.0,3.0,34,0.00,,,0.00,Wunderground v.1.15,2013-10-20 20:50:00,
2013-10-20 16:56:00,62.1,34.1,29.88,West,276,2.0,3.0,35,0.00,,,0.00,Wunderground v.1.15,2013-10-20 20:56:00,
2013-10-20 17:02:00,62.1,34.1,29.89,South,190,1.0,4.0,35,0.00,,,0.00,Wunderground v.1.15,2013-10-20 21:02:00,
2013-10-20 17:07:00,62.0,34.0,29.89,WSW,245,1.0,4.0,35,0.00,,,0.00,Wunderground v.1.15,2013-10-20 21:07:00,
2013-10-20 17:13:00,61.7,33.7,29.89,NE,34,1.0,2.0,35,0.00,,,0.00,Wunderground v.1.15,2013-10-20 21:13:00,
2013-10-20 17:18:00,61.7,34.5,29.89,NW,307,1.0,2.0,36,0.00,,,0.00,Wunderground v.1.15,2013-10-20 21:18:00,
2013-10-20 17:23:00,61.8,33.8,29.90,WNW,282,1.0,1.0,35,0.00,,,0.00,Wunderground v.1.15,2013-10-20 21:23:00,
2013-10-20 17:29:00,61.4,33.5,29.90,WNW,292,1.0,3.0,35,0.00,,,0.00,Wunderground v.1.15,2013-10-20 21:29:00,
2013-10-20 17:34:00,60.8,33.7,29.90,South,184,1.0,2.0,36,0.00,,,0.00,Wunderground v.1.15,2013-10-20 21:34:00,
2013-10-20 17:39:00,60.2,33.8,29.91,West,276,1.0,2.0,37,0.00,,,0.00,Wunderground v.1.15,2013-10-20 21:39:00,
2013-10-20 17:45:00,59.8,33.5,29.91,SW,230,0.0,3.0,37,0.00,,,0.00,Wunderground v.1.15,2013-10-20 21:45:00,
2013-10-20 17:50:00,59.4,33.1,29.91,West,279,1.0,3.0,37,0.00,,,0.00,Wunderground v.1.15,2013-10-20 21:50:00,
2013-10-20 17:55:00,59.1,33.5,29.91,NW,321,0.0,0.0,38,0.00,,,0.00,Wunderground v.1.15,2013-10-20 21:55:00,
2013-10-20 18:01:00,58.8,33.2,29.92,NW,317,0.0,0.0,38,0.00,,,0.00,Wunderground v.1.15,2013-10-20 22:01:00,
2013-10-20 18:06:00,58.6,33.7,29.92,WNW,295,1.0,1.0,39,0.00,,,0.00,Wunderground v.1.15,2013-10-20 22:06:00,
2013-10-20 18:11:00,58.3,33.4,29.92,WNW,302,0.0,0.0,39,0.00,,,0.00,Wunderground v.1.15,2013-10-20 22:11:00,
2013-10-20 18:17:00,58.1,33.2,29.92,NW,314,0.0,1.0,39,0.00,,,0.00,Wunderground v.1.15,2013-10-20 22:17:00,
2013-10-20 18:23:00,57.9,33.7,29.92,NW,315,0.0,0.0,40,0.00,,,0.00,Wunderground v.1.15,2013-10-20 22:23:00,
2013-10-20 18:28:00,57.7,33.5,29.93,West,272,0.0,0.0,40,0.00,,,0.00,Wunderground v.1.15,2013-10-20 22:28:00,
2013-10-20 18:33:00,57.4,33.9,29.93,West,272,0.0,0.0,41,0.00,,,0.00,Wunderground v.1.15,2013-10-20 22:33:00,
2013-10-20 18:38:00,57.0,34.1,29.93,WSW,243,0.0,1.0,42,0.00,,,0.00,Wunderground v.1.15,2013-10-20 22:38:00,
2013-10-20 18:44:00,56.6,33.8,29.93,WSW,249,0.0,0.0,42,0.00,,,0.00,Wunderground v.1.15,2013-10-20 22:44:00,
2013-10-20 18:50:00,56.4,34.2,29.93,NW,323,0.0,0.0,43,0.00,,,0.00,Wunderground v.1.15,2013-10-20 22:50:00,
2013-10-20 18:55:00,56.2,34.0,29.93,NNW,330,0.0,0.0,43,0.00,,,0.00,Wunderground v.1.15,2013-10-20 22:55:00,
2013-10-20 19:01:00,56.0,34.4,29.94,NW,321,0.0,0.0,44,0.00,,,0.00,Wunderground v.1.15,2013-10-20 23:01:00,
2013-10-20 19:06:00,55.6,34.6,29.94,ENE,58,0.0,0.0,45,0.00,,,0.00,Wunderground v.1.15,2013-10-20 23:06:00,
2013-10-20 19:11:00,55.3,34.9,29.94,WSW,256,0.0,0.0,46,0.00,,,0.00,Wunderground v.1.15,2013-10-20 23:11:00,
2013-10-20 19:17:00,55.0,34.6,29.94,West,259,0.0,0.0,46,0.00,,,0.00,Wunderground v.1.15,2013-10-20 23:17:00,
2013-10-20 19:22:00,54.8,34.9,29.94,West,259,0.0,0.0,47,0.00,,,0.00,Wunderground v.1.15,2013-10-20 23:22:00,
2013-10-20 19:27:00,54.4,34.6,29.95,West,259,0.0,0.0,47,0.00,,,0.00,Wunderground v.1.15,2013-10-20 23:27:00,
2013-10-20 19:32:00,54.0,34.7,29.95,West,259,0.0,0.0,48,0.00,,,0.00,Wunderground v.1.15,2013-10-20 23:32:00,
2013-10-20 19:37:00,53.6,34.9,29.95,West,259,0.0,0.0,49,0.00,,,0.00,Wunderground v.1.15,2013-10-20 23:37:00,
2013-10-20 19:43:00,53.2,35.0,29.95,West,259,0.0,0.0,50,0.00,,,0.00,Wunderground v.1.15,2013-10-20 23:43:00,
2013-10-20 19:49:00,52.9,34.8,29.96,West,259,0.0,0.0,50,0.00,,,0.00,Wunderground v.1.15,2013-10-20 23:49:00,
2013-10-20 19:55:00,52.5,34.9,29.96,West,259,0.0,0.0,51,0.00,,,0.00,Wunderground v.1.15,2013-10-20 23:55:00,
2013-10-20 20:01:00,52.1,35.0,29.96,West,259,0.0,0.0,52,0.00,,,0.00,Wunderground v.1.15,2013-10-21 00:01:00,
2013-10-20 20:06:00,51.7,35.1,29.96,West,259,0.0,0.0,53,0.00,,,0.00,Wunderground v.1.15,2013-10-21 00:06:00,
2013-10-20 20:12:00,51.4,35.3,29.97,West,259,0.0,0.0,54,0.00,,,0.00,Wunderground v.1.15,2013-10-21 00:12:00,
2013-10-20 20:17:00,51.2,35.6,29.97,West,259,0.0,0.0,55,0.00,,,0.00,Wunderground v.1.15,2013-10-21 00:17:00,
2013-10-20 20:23:00,51.0,34.9,29.97,West,259,0.0,0.0,54,0.00,,,0.00,Wunderground v.1.15,2013-10-21 00:23:00,
2013-10-20 20:28:00,50.8,35.2,29.97,West,259,0.0,0.0,55,0.00,,,0.00,Wunderground v.1.15,2013-10-21 00:28:00,
2013-10-20 20:34:00,50.9,35.7,29.97,West,259,0.0,0.0,56,0.00,,,0.00,Wunderground v.1.15,2013-10-21 00:34:00,
2013-10-20 20:39:00,51.3,35.7,29.98,WNW,293,0.0,1.0,55,0.00,,,0.00,Wunderground v.1.15,2013-10-21 00:39:00,
2013-10-20 20:45:00,51.8,35.7,29.98,West,281,0.0,0.0,54,0.00,,,0.00,Wunderground v.1.15,2013-10-21 00:45:00,
2013-10-20 20:51:00,52.0,35.9,29.98,WSW,249,0.0,0.0,54,0.00,,,0.00,Wunderground v.1.15,2013-10-21 00:51:00,
2013-10-20 20:57:00,52.0,35.9,29.98,West,260,0.0,0.0,54,0.00,,,0.00,Wunderground v.1.15,2013-10-21 00:57:00,
2013-10-20 21:02:00,51.9,35.8,29.98,West,274,0.0,0.0,54,0.00,,,0.00,Wunderground v.1.15,2013-10-21 01:02:00,
2013-10-20 21:08:00,51.9,35.8,29.99,West,277,0.0,0.0,54,0.00,,,0.00,Wunderground v.1.15,2013-10-21 01:08:00,
2013-10-20 21:13:00,51.8,35.7,29.99,West,279,0.0,0.0,54,0.00,,,0.00,Wunderground v.1.15,2013-10-21 01:13:00,
2013-10-20 21:19:00,51.7,35.6,29.99,SW,229,0.0,1.0,54,0.00,,,0.00,Wunderground v.1.15,2013-10-21 01:19:00,
2013-10-20 21:25:00,51.5,35.9,29.99,WNW,283,0.0,0.0,55,0.00,,,0.00,Wunderground v.1.15,2013-10-21 01:25:00,
2013-10-20 21:30:00,51.4,35.8,29.99,West,273,0.0,0.0,55,0.00,,,0.00,Wunderground v.1.15,2013-10-21 01:30:00,
2013-10-20 21:36:00,51.2,36.0,29.99,WSW,250,0.0,0.0,56,0.00,,,0.00,Wunderground v.1.15,2013-10-21 01:36:00,
2013-10-20 21:42:00,51.0,35.8,30.00,WSW,249,0.0,0.0,56,0.00,,,0.00,Wunderground v.1.15,2013-10-21 01:42:00,
2013-10-20 21:47:00,50.9,36.2,30.00,WSW,255,0.0,0.0,57,0.00,,,0.00,Wunderground v.1.15,2013-10-21 01:47:00,
2013-10-20 21:53:00,50.8,36.1,30.00,West,259,0.0,0.0,57,0.00,,,0.00,Wunderground v.1.15,2013-10-21 01:53:00,
2013-10-20 21:59:00,50.6,35.9,30.00,WSW,255,0.0,1.0,57,0.00,,,0.00,Wunderground v.1.15,2013-10-21 01:59:00,
2013-10-20 22:04:00,50.5,36.3,30.00,West,269,0.0,0.0,58,0.00,,,0.00,Wunderground v.1.15,2013-10-21 02:04:00,
2013-10-20 22:10:00,50.4,36.2,30.00,West,270,0.0,0.0,58,0.00,,,0.00,Wunderground v.1.15,2013-10-21 02:10:00,
2013-10-20 22:15:00,50.3,36.1,30.01,West,274,0.0,0.0,58,0.00,,,0.00,Wunderground v.1.15,2013-10-21 02:15:00,
2013-10-20 22:21:00,50.2,36.0,30.01,West,280,0.0,0.0,58,0.00,,,0.00,Wunderground v.1.15,2013-10-21 02:21:00,
2013-10-20 22:27:00,50.0,36.2,30.01,West,280,0.0,0.0,59,0.00,,,0.00,Wunderground v.1.15,2013-10-21 02:27:00,
2013-10-20 22:33:00,49.7,36.4,30.01,West,271,0.0,1.0,60,0.00,,,0.00,Wunderground v.1.15,2013-10-21 02:33:00,
2013-10-20 22:39:00,49.5,36.2,30.01,West,273,0.0,1.0,60,0.00,,,0.00,Wunderground v.1.15,2013-10-21 02:39:00,
2013-10-20 22:45:00,49.3,36.4,30.01,West,263,0.0,1.0,61,0.00,,,0.00,Wunderground v.1.15,2013-10-21 02:45:00,
2013-10-20 22:50:00,49.3,36.4,30.01,WSW,240,0.0,0.0,61,0.00,,,0.00,Wunderground v.1.15,2013-10-21 02:50:00,
2013-10-20 22:56:00,49.2,36.3,30.01,West,263,0.0,0.0,61,0.00,,,0.00,Wunderground v.1.15,2013-10-21 02:56:00,
2013-10-20 23:01:00,49.1,36.2,30.01,West,264,0.0,0.0,61,0.00,,,0.00,Wunderground v.1.15,2013-10-21 03:01:00,
2013-10-20 23:06:00,49.0,36.1,30.02,WSW,243,0.0,0.0,61,0.00,,,0.00,Wunderground v.1.15,2013-10-21 03:06:00,
2013-10-20 23:12:00,48.9,36.4,30.02,WSW,246,0.0,0.0,62,0.00,,,0.00,Wunderground v.1.15,2013-10-21 03:12:00,
2013-10-20 23:17:00,48.8,36.4,30.02,WSW,246,0.0,0.0,62,0.00,,,0.00,Wunderground v.1.15,2013-10-21 03:17:00,
2013-10-20 23:23:00,48.7,36.3,30.02,WSW,248,0.0,0.0,62,0.00,,,0.00,Wunderground v.1.15,2013-10-21 03:23:00,
2013-10-20 23:28:00,48.6,36.2,30.02,WSW,246,0.0,1.0,62,0.00,,,0.00,Wunderground v.1.15,2013-10-21 03:28:00,
2013-10-20 23:33:00,48.6,36.2,30.02,West,263,0.0,1.0,62,0.00,,,0.00,Wunderground v.1.15,2013-10-21 03:33:00,
2013-10-20 23:39:00,48.6,36.2,30.03,West,276,0.0,1.0,62,0.00,,,0.00,Wunderground v.1.15,2013-10-21 03:39:00,
2013-10-20 23:44:00,48.6,36.2,30.02,West,273,0.0,1.0,62,0.00,,,0.00,Wunderground v.1.15,2013-10-21 03:44:00,
2013-10-20 23:50:00,48.5,36.1,30.02,WNW,282,0.0,1.0,62,0.00,,,0.00,Wunderground v.1.15,2013-10-21 03:50:00,
2013-10-20 23:55:00,48.5,36.1,30.02,NW,321,0.0,0.0,62,0.00,,,0.00,Wunderground v.1.15,2013-10-21 03:55:00,